Theta_e
285 287 288 288 288 289 288 289 285 289 289 294 297 300 306 314 316 317 318 319 320 321 322 323 323 323 323 322 322 324 326 326 322 323 324 324 324 324 324 327 327 327 323 322
284 288 289 287 290 291 290 290 290 290 290 299 301 310 310 314 316 316 317 319 320 321 322 322 321 322 321 322 320 324 326 327 324 324 325 324 323 323 327 326 327 325 321 321
281 288 288 283 289 290 291 293 292 287 293 300 302 313 312 311 316 317 318 319 320 321 322 322 321 321 318 320 323 325 326 327 325 325 325 324 324 323 323 323 322 319 319 318
283 285 277 289 297 298 296 298 298 303 304 307 311 314 317 316 314 317 319 320 321 322 322 321 321 319 317 322 324 325 326 327 325 325 324 324 323 321 320 320 320 319 317 316
282 283 287 292 292 293 293 296 303 302 306 309 310 314 314 319 318 318 320 322 323 324 322 319 318 318 319 321 324 325 327 327 325 325 324 324 323 320 320 320 318 318 316 315
285 281 280 287 291 297 300 293 303 301 303 308 308 302 306 317 318 318 321 323 323 323 320 319 317 319 318 317 322 323 324 326 326 325 324 323 322 321 320 320 323 322 316 314
283 283 286 291 293 299 290 292 300 303 303 310 305 309 312 316 318 318 321 323 324 321 318 318 319 318 316 315 318 324 326 326 324 324 323 323 322 321 319 320 321 320 318 314
284 284 280 295 296 292 295 299 301 302 306 308 311 313 315 317 319 319 320 322 322 319 317 318 319 318 315 314 316 323 325 325 324 324 327 325 323 321 320 320 321 318 316 314
285 285 292 297 297 300 302 300 302 303 306 309 310 311 313 315 319 321 320 320 321 318 317 318 319 318 315 316 316 323 324 324 324 326 326 325 323 321 319 317 317 317 317 317
290 292 295 298 300 302 303 302 303 304 306 309 308 310 311 313 317 320 323 323 321 318 317 316 317 318 318 316 320 324 323 324 325 325 323 323 324 323 321 319 317 319 318 319
291 294 295 298 300 302 302 304 303 304 306 308 308 308 310 311 313 316 321 323 323 319 318 317 317 318 318 317 321 323 324 324 325 325 324 323 320 320 323 322 320 320 320 321
287 293 293 295 299 302 301 302 303 303 304 308 308 308 310 311 314 318 319 323 324 322 320 319 318 319 319 318 323 324 323 324 324 325 324 322 315 310 298 301 298 301 308 316
295 298 298 299 301 302 302 303 304 304 307 305 309 308 309 309 313 315 318 320 323 325 322 321 319 319 321 319 324 324 323 323 322 322 322 315 313 314 311 306 297 296 301 302
300 298 297 299 298 302 304 305 305 308 308 308 308 308 308 309 312 314 315 317 320 325 326 322 321 320 322 320 323 324 323 311 323 323 322 317 313 311 311 311 315 314 300 301
299 301 301 302 304 304 304 305 305 305 307 307 308 308 308 308 310 313 316 320 322 324 323 324 321 320 322 321 321 323 323 322 324 324 323 319 316 312 311 311 316 315 308 302
299 301 302 302 302 303 302 303 303 304 305 306 307 308 309 309 310 312 316 321 320 318 322 321 322 322 322 321 321 321 323 313 316 322 321 321 319 315 312 311 311 314 316 316
294 296 298 298 301 301 300 301 303 303 303 304 305 308 309 309 310 310 313 319 321 319 318 317 319 324 324 321 322 322 322 317 308 321 321 321 321 318 316 314 313 312 315 311
299 301 299 300 298 298 299 301 301 302 302 303 305 305 305 304 304 306 312 316 313 313 314 314 311 314 317 314 318 322 322 320 319 320 320 321 321 320 319 317 315 313 313 310
300 301 302 302 301 299 299 299 299 301 301 302 302 301 302 302 303 306 309 306 306 305 305 312 305 310 312 306 306 317 320 320 319 320 318 309 312 318 320 319 317 316 314 313
301 302 303 304 302 299 298 299 299 299 300 299 300 299 299 300 302 304 306 304 302 304 304 307 311 310 311 309 305 321 319 320 319 318 318 314 316 316 317 309 319 318 316 315
303 302 300 300 300 300 298 299 298 298 300 299 297 297 297 298 299 300 300 298 299 301 300 303 304 304 305 300 309 320 323 320 319 317 317 314 314 313 314 315 316 319 319 316
301 300 300 300 300 299 299 298 298 298 297 298 298 297 297 296 296 297 299 296 298 291 300 304 302 297 301 297 314 315 321 325 320 319 318 318 317 316 315 315 315 316 317 319
300 301 301 300 299 298 299 298 298 297 296 296 297 296 296 295 296 293 293 296 296 293 301 298 291 289 293 310 314 315 316 323 323 322 322 319 319 318 318 316 316 317 317 315
300 301 300 300 298 298 296 297 297 297 296 296 296 296 295 294 294 295 296 291 289 290 296 292 291 289 294 304 307 311 310 314 317 321 322 309 323 320 319 318 316 317 317 311
302 302 301 297 296 295 296 296 295 296 295 294 295 296 295 295 293 293 293 292 289 291 294 290 289 291 298 299 300 302 301 299 301 307 308 308 308 309 311 315 319 319 316 315
300 301 300 298 297 295 295 294 292 293 293 292 292 294 295 294 293 292 293 291 292 291 292 293 292 294 295 295 296 297 296 295 296 298 299 300 301 301 304 305 308 311 311 314
299 297 298 298 297 296 295 293 293 292 292 291 290 292 292 292 292 291 290 291 291 291 291 291 291 290 292 293 293 293 293 293 291 293 294 294 296 298 301 301 303 302 304 303
Wind_Speed
15 16 16 16 16 13 12 9 4 7 13 16 19 16 12 14 14 18 17 17 17 16 14 13 12 11 10 9 8 7 8 8 7 6 6 6 5 5 3 3 5 7 7 5
13 16 18 20 19 13 17 12 9 16 25 10 14 14 10 17 19 20 19 18 18 17 17 15 14 12 11 9 7 7 9 8 6 7 6 6 5 4 2 7 7 6 6 6
7 13 14 9 15 18 14 9 4 5 8 17 15 2 6 8 10 22 21 19 19 18 17 15 14 12 11 9 8 8 9 9 7 6 6 6 6 5 5 6 7 6 6 6
5 5 5 5 7 2 7 6 5 12 17 9 6 4 9 8 8 10 18 18 18 16 15 14 13 10 8 11 10 10 9 9 7 6 7 6 6 6 6 5 6 6 6 5
4 3 4 1 5 8 9 2 8 16 14 3 6 9 7 9 10 13 19 17 17 16 15 13 14 11 12 11 11 10 10 9 8 7 7 7 6 6 5 6 5 4 5 6
3 5 3 4 10 17 9 2 10 18 14 10 8 5 3 4 18 13 17 16 16 16 15 15 11 13 14 11 10 10 9 10 9 7 8 7 7 6 4 4 5 5 5 4
10 6 3 5 21 20 8 3 20 19 16 8 5 3 4 9 12 9 15 18 16 17 17 15 14 14 13 12 10 11 10 8 8 7 8 7 7 4 5 6 7 6 6 4
4 3 5 15 2 7 7 12 15 17 9 9 12 13 7 10 6 6 12 15 18 15 14 13 14 14 12 11 9 10 10 10 8 8 7 6 7 5 6 7 8 7 5 4
3 2 5 7 11 10 8 16 12 12 10 9 8 5 7 1 7 8 8 7 11 15 13 12 12 14 13 11 9 11 11 10 9 8 7 7 8 7 5 5 6 5 5 4
3 4 7 6 12 10 13 16 17 17 10 9 3 6 8 10 7 9 10 7 5 9 12 12 9 12 13 8 10 13 13 12 10 9 8 6 4 5 5 5 5 5 5 5
3 5 9 3 3 6 15 14 19 19 9 9 6 12 11 9 9 8 10 7 7 6 8 12 11 10 10 9 12 12 13 11 10 7 9 7 4 3 4 4 6 8 7 7
4 7 4 10 14 7 13 16 19 21 17 11 9 11 12 12 11 10 10 6 5 8 6 6 8 10 10 10 14 13 12 10 9 8 6 6 6 3 5 3 2 6 10 8
4 9 10 11 10 5 8 16 21 19 8 4 8 11 12 10 12 7 13 12 7 2 10 7 7 8 9 11 13 14 13 11 8 9 7 7 4 5 5 2 3 4 9 12
7 5 6 7 10 16 12 9 15 10 14 10 9 10 10 11 12 13 13 11 10 7 9 13 10 10 7 11 14 14 13 15 10 9 8 7 6 5 4 4 4 4 5 2
7 5 6 8 8 8 9 11 12 13 14 15 14 13 12 11 11 10 12 13 10 12 14 4 13 11 8 10 13 15 12 10 10 9 8 9 7 5 5 4 4 6 3 5
8 6 8 10 9 9 8 12 12 14 14 15 15 15 13 8 8 8 11 12 12 12 11 10 6 7 11 10 11 12 13 16 11 9 8 8 8 8 6 5 5 7 7 7
5 9 7 9 9 8 9 9 10 10 10 12 13 11 15 14 14 12 9 10 10 9 10 12 11 9 8 7 10 7 9 10 12 10 9 9 9 9 9 8 7 6 7 8
3 2 4 5 6 5 6 8 8 9 11 11 11 13 14 15 13 14 13 14 15 14 16 13 12 13 12 9 2 6 8 10 10 11 9 9 9 9 9 9 9 9 6 5
5 6 6 6 5 6 6 9 9 11 10 11 11 11 11 13 13 13 12 14 15 16 18 15 14 12 11 11 7 2 5 9 10 9 9 9 7 9 9 10 10 10 9 8
3 3 3 6 5 4 6 6 7 9 10 12 11 12 13 13 12 12 11 10 10 9 14 15 12 11 11 12 10 3 4 6 9 8 8 6 8 9 9 9 11 11 10 10
5 3 2 4 4 3 6 6 7 11 13 13 14 12 11 10 11 11 12 10 16 17 15 14 13 10 7 8 9 6 4 3 6 6 5 6 7 7 7 9 10 11 11 11
5 5 5 3 4 6 5 6 8 12 13 12 14 14 12 12 12 9 8 10 9 12 9 11 11 13 8 9 8 8 7 6 4 4 5 7 8 6 8 8 10 11 11 11
6 5 3 5 5 5 6 6 7 10 12 12 14 13 12 9 8 9 9 13 10 13 9 10 15 14 10 10 9 9 9 7 6 5 4 2 5 6 6 6 5 5 6 7
6 6 4 4 5 7 9 6 7 8 10 9 12 12 11 8 7 8 8 9 13 10 9 11 14 14 13 11 11 12 11 11 11 11 11 11 9 7 5 3 4 5 7 8
7 7 5 5 6 4 7 6 8 8 8 8 11 10 13 9 8 8 9 9 12 11 10 13 16 14 13 11 11 12 12 12 11 10 11 10 11 11 11 10 9 10 6 5
8 6 4 6 5 4 4 4 5 4 5 6 8 8 8 9 9 10 10 11 12 12 11 11 12 12 11 12 12 12 11 12 12 12 12 10 10 10 10 11 10 11 11 11
4 6 5 4 4 5 4 4 6 5 5 5 5 5 5 8 10 11 12 12 12 12 11 11 11 12 11 11 12 13 11 10 12 11 11 10 10 10 10 10 10 10 10 11
Wind_Direction
250 262 269 267 256 253 249 247 241 310 281 293 300 287 235 183 154 147 148 149 152 151 153 152 152 153 154 163 153 157 148 143 159 153 153 147 160 165 185 182 141 130 125 111
282 270 255 250 247 243 244 246 244 249 270 283 300 300 176 174 161 155 155 156 156 153 155 156 158 158 157 164 154 142 148 146 158 141 156 145 158 150 116 132 131 122 114 116
258 290 245 227 234 241 233 187 190 254 273 293 303 347 359 47 206 160 159 158 160 157 160 159 163 157 161 156 146 145 145 151 153 151 142 149 145 133 122 131 119 128 116 113
276 275 212 137 48 168 222 191 163 315 262 272 156 36 302 58 5 186 155 157 162 160 162 160 159 153 139 145 149 146 151 157 147 146 145 146 132 132 122 128 130 132 122 125
262 276 288 36 22 342 360 300 43 345 337 254 54 90 288 11 334 260 162 157 164 163 162 155 156 150 144 147 150 148 161 160 157 157 150 141 145 147 143 131 132 139 131 140
305 287 280 196 312 306 282 277 358 339 318 324 56 139 211 346 291 243 165 159 162 162 157 153 152 150 147 149 154 154 165 164 163 150 153 151 151 152 140 134 121 126 117 138
252 248 239 31 308 288 180 354 320 317 315 353 47 252 254 232 247 204 169 160 155 154 159 159 150 150 156 151 163 170 162 154 140 143 146 143 137 130 127 122 120 121 123 128
307 337 333 346 334 57 15 326 305 298 316 40 8 344 295 267 326 75 139 149 153 152 157 155 153 153 158 167 167 159 157 149 144 142 142 143 136 126 130 129 135 133 127 123
339 303 273 357 343 356 335 317 307 292 3 20 31 272 237 262 5 52 85 129 151 150 149 155 159 159 162 183 139 157 141 141 145 136 137 145 141 141 132 133 135 144 148 143
290 274 285 37 0 345 338 313 324 336 342 8 293 6 37 52 27 52 71 89 96 137 152 161 164 164 172 155 143 146 148 146 146 145 143 138 130 144 141 152 146 153 159 170
273 307 321 293 291 3 302 314 351 334 342 6 5 24 27 32 33 30 68 43 119 170 162 175 165 169 173 145 146 154 151 150 154 154 157 148 111 151 169 186 176 170 181 179
288 302 276 302 327 311 355 335 331 328 328 12 11 36 24 27 25 28 50 101 61 157 162 181 180 176 174 144 150 154 154 156 161 158 162 156 145 129 55 83 243 233 170 162
284 317 304 295 297 329 3 330 315 313 318 28 23 33 26 15 25 31 31 41 22 265 177 166 170 188 191 148 152 158 160 161 162 157 161 152 154 161 172 26 45 214 194 162
306 338 327 321 317 322 354 295 286 333 15 17 32 32 23 15 23 32 26 4 356 353 186 167 172 188 205 157 156 160 166 160 165 167 165 159 160 168 162 172 156 146 56 102
329 286 258 281 336 354 349 1 355 10 8 20 21 20 6 16 16 24 15 13 5 26 31 179 181 187 176 177 164 160 165 170 167 171 168 164 160 156 166 167 168 153 111 69
326 340 16 15 357 352 4 12 13 13 12 12 11 5 1 356 10 15 20 18 20 17 11 15 352 211 177 172 171 168 170 173 165 168 167 167 165 170 175 177 163 172 175 179
5 4 358 6 352 13 11 5 14 6 11 10 1 2 22 20 10 6 18 20 22 16 27 27 6 340 218 160 168 177 181 173 171 170 175 179 178 177 181 181 185 183 189 175
53 53 13 358 346 18 16 14 9 4 20 20 18 28 32 31 12 2 3 34 22 10 15 10 9 20 41 23 226 173 181 184 181 181 180 183 184 186 184 185 186 191 190 174
76 23 4 358 6 17 14 16 21 24 20 24 27 27 31 33 14 10 41 39 27 9 349 334 347 13 14 6 340 208 175 178 192 196 186 185 176 187 189 194 193 193 190 177
165 171 323 7 40 36 58 43 30 34 36 29 26 27 32 29 15 13 18 33 29 4 337 332 355 5 353 351 343 17 165 179 196 198 190 180 195 194 197 193 198 197 192 190
185 221 17 51 358 20 66 37 37 39 33 35 30 25 33 29 26 15 23 10 357 353 340 357 4 356 348 349 338 353 14 155 189 187 186 195 177 192 200 200 198 202 200 197
165 164 148 97 48 35 78 49 42 41 39 27 33 29 27 30 24 19 36 18 340 346 347 9 357 337 337 343 359 345 354 6 44 181 199 213 209 196 199 202 209 209 204 203
134 154 120 77 57 64 75 47 61 51 47 28 30 29 24 27 23 16 7 3 1 345 19 10 344 343 355 22 7 349 351 359 9 23 33 227 220 203 208 211 227 238 238 217
129 124 118 102 67 59 74 51 62 65 56 43 40 37 25 15 24 21 17 3 1 355 25 10 359 356 21 26 20 28 21 20 17 19 20 15 29 28 16 337 264 238 217 209
127 132 135 105 85 71 81 53 48 43 47 39 37 35 33 29 29 12 17 13 9 12 22 18 14 17 29 26 25 30 29 23 21 20 22 19 14 14 17 11 10 4 321 280
141 161 157 151 134 110 112 83 80 58 50 46 44 35 34 32 25 30 33 28 30 21 28 25 23 21 27 28 27 29 28 24 22 24 19 18 14 14 7 6 7 10 8 7
126 110 122 104 101 113 119 111 97 78 61 55 52 16 23 36 37 38 35 34 36 34 30 29 30 26 28 29 32 32 29 28 26 22 20 14 11 8 358 360 0 9 2 7